STARLINK-2298

Last updated on Sat Apr 24 2021 00:02:02 GMT+0000 (Coordinated Universal Time)

1 48022U 21024AX 21113.25001157 .00033509 00000-0 24246-3 0 9995 2 48022 53.0484 55.6592 0001269 80.9494 91.5658 15.73172468 1825

Satellite not in orbit